Location: Roanoke
(37.2710°N, 79.9420°W)
Time: 05:51:18
(UTC-05:00)

Transit 2A - Pass Details

Date: 28 November 2019
Orbit: 602 x 957 km, 66.7° (Epoch: 10 December)

Event Time Altitude Azimuth Distance (km) Brightness Sun altitude
Rises 20:41:19 0° 306° (NW) 2,887 9.6 -42.9°
Enters shadow 20:43:12 - 292° (WNW) 2,367 9.2 -43.3°
Reaches altitude 10° 20:45:10 10° 271° (W) 2,024 - -43.7°
Maximum altitude 20:46:31 11° 254° (WSW) 1,965 - -43.9°
Drops below altitude 10° 20:47:52 10° 237° (WSW) 2,065 - -44.2°
Sets 20:51:58 0° 203° (SSW) 3,058 - -45.0°
